Location: Sevilla
(37.3933°N, 5.9839°W)
Time: 03:30:08
(UTC+02:00)

Tiros 1 despin weight - Pass Details

Date: 03 July 2024
Orbit: 576 x 620 km, 48.2° (Epoch: 22 July)

Event Time Altitude Azimuth Distance (km) Brightness Sun altitude
Rises 13:25:28 0° 298° (WNW) 2,880 ? 70.2°
Reaches altitude 10° 13:28:15 10° 315° (NW) 1,980 ? 70.6°
Maximum altitude 13:31:44 21° 4° (N) 1,399 ? 71.1°
Drops below altitude 10° 13:35:13 10° 54° (NE) 1,987 ? 71.5°
Sets 13:38:02 0° 71° (ENE) 2,893 ? 71.9°
